www.pogodaiklimat.ru

Погода и климат >> Архив погоды >> Россия >> Дагестан >> Касумкент


ПОГОДА в Касумкенте

  • Прогноз погоды в Касумкенте
  • Монитор погоды в Касумкенте

АРХИВ ПОГОДЫ в Касумкенте

Время (UTC), дата Ветер
(напр.,м/с)
 
Видим.   Явления Облачность Т
(С)
Тd
(С)
f
(%)
Тe
(С)
Тes
(С)
Комфортность P
(гПа)
Po
(гПа)
Тmin
(С)
Tmax
(С)
R
(мм)
R24
(мм)
S
(см)
21 19.03 штиль 0 10 км {дождь} 10/10 600 м
[Cb calv]
+3.0 +2.6 97 +2 +2 1025.5 967.2
00 20.03 З 1 4000 м слаб. дождь 10/10 300 м
[Cb calv As op]
+2.3 +1.9 97 0 0 1024.7 966.3
03 20.03 З 1 4000 м слаб. дождь 10/10 300 м
[Cb calv As op]
+2.1 +1.5 96 0 0 1024.6 966.2 +2.1 7
06 20.03 ЮВ 1 4000 м слаб. дождь 10/10 300 м
[Cb cap As op]
+2.5 +1.9 96 +1 +1 1025.1 966.8
09 20.03 штиль 0 4000 м слаб. дождь 10/10 300 м
[Cb cap]
+3.0 +2.1 94 +2 +2 1024.7 966.5
12 20.03 штиль 0 4000 м слаб. дождь 10/10 300 м
[Cb cap]
+3.3 +2.3 93 +2 +2 1023.7 965.6
15 20.03 СВ 1 4000 м слаб. дождь 10/10 300 м
[Cb cap]
+2.7 +2.2 97 +1 +1 1024.1 965.8 +3.6 8
18 20.03 штиль 0 10 км {дождь} 10/10 600 м
[Cb calv]
+2.7 +2.3 97 +1 +1 1024.5 966.2
21 20.03 Ю 1 10 км 10/10 600 м
[Cb calv]
+2.7 +2.3 97 +1 +1 1024.1 965.9
00 21.03 ЮЗ 1 10 км 10/10 600 м
[Cb calv]
+3.3 +2.7 96 +2 +2 1022.7 964.7
03 21.03 ЮЗ 1 20 км 10/10 600 м
[Cb calv]
+3.6 +2.4 92 +2 +2 1022.9 964.9 +2.6 0.5
06 21.03 штиль 0 20 км 10/10 600 м
[Cb calv]
+7.2 +1.6 68 +7 +7 1023.3 966.0
09 21.03 СВ 1 20 км 10/10 600 м
[Cb calv]
+9.3 +2.1 61 +9 +9 1022.2 965.4
12 21.03 В 2 20 км 10/0
[Ac trans]
+10.7 +4.0 63 +10 +12 1020.8 964.3
15 21.03 В 1 20 км 8/3 600 м
[Sc diur, vesp Ac trans Ci fib]
+6.8 +3.0 77 +6 +6 1021.7 964.4 +11.1
18 21.03 ЮЗ 1 10 км ясно +3.2 +1.7 90 +2 +2 1023.0 964.9
21 21.03 З 2 10 км ясно +2.9 +1.2 89 -0 -0 1022.5 964.4
00 22.03 З 3 10 км ясно +3.4 +0.1 79 -0 -0 1022.1 964.1
03 22.03 З 2 н/о н/о +3.7 -0.0 77 +1 +1 1022.6 964.6 +1.6
06 22.03 В 2 20 км 10/10 600 м
[Cb calv]
+7.3 +2.4 71 +5 +5 1023.0 965.7
09 22.03 В 2 20 км 10/10 600 м
[Cb calv]
+7.2 +3.5 77 +5 +5 1022.2 965.0
12 22.03 СВ 2 20 км 10/10 600 м
[Sc]
+5.7 +4.0 89 +3 +3 1021.3 963.9
15 22.03 С 1 4000 м слаб. дождь 10/10 300 м
[Sc diur, vesp]
+4.0 +3.2 95 +2 +2 1022.5 964.6 +7.5 1
18 22.03 ЮВ 1 4000 м слаб. дождь 10/10 300 м
[Frnb]
+3.5 +3.0 97 +2 +2 1023.5 965.5
21 22.03 ЮЗ 1 10 км {дождь} 10/10 600 м
[Cb calv]
+3.3 +2.9 97 +2 +2 1022.4 964.4
00 23.03 З 1 10 км 10/10 600 м
[Cb calv]
+3.4 +1.7 89 +2 +2 1020.2 962.3
03 23.03 З 1 20 км 10/10 600 м
[Cu hum]
+1.3 -0.4 88 -1 -1 1018.5 960.3 +1.3 1
06 23.03 В 2 50 км ясно +8.7 +0.4 56 +7 +15 1015.7 959.1
09 23.03 В 2 20 км 10/10 600 м
[Cb calv]
+8.9 +3.5 69 +7 +7 1013.9 957.5
12 23.03 СВ 2 20 км 10/10 600 м
[Cb calv]
+6.1 +3.3 82 +4 +4 1013.0 956.1
15 23.03 С 2 20 км 10/10 600 м
[Cb calv]
+4.9 +4.0 94 +2 +2 1012.0 954.9 +9.6
18 23.03 СЗ 1 10 км 10/10 600 м
[Cb calv]
+5.3 +3.5 88 +4 +4 1012.1 955.1
21 23.03 З 1 10 км 10/10 600 м
[Cb calv]
+2.6 +1.9 95 +1 +1 1012.3 954.7
00 24.03 СЗ 1 10 км 10/10 600 м
[Cb calv]
+0.8 -0.1 94 -1 -1 1013.6 955.5
03 24.03 штиль 0 20 км 10/10 600 м
[Cb calv]
+3.1 +1.8 91 +2 +2 1013.9 956.3 +0.6
06 24.03 штиль 0 20 км 10/10 600 м
[Cb calv]
+5.3 +2.3 81 +4 +4 1014.3 957.2
09 24.03 В 1 20 км 10/10 600 м
[Cb calv]
+5.0 +3.7 91 +4 +4 1014.7 957.4
12 24.03 В 2 4000 м слаб. дождь {туман} 10/10 600 м
[Cb cap]
+3.0 +2.6 97 -0 -0 1015.4 957.7
15 24.03 СВ 1 2000 м слаб. дождь 10/10 300 м
[Cb cap]
+1.9 +1.5 97 -0 -0 1016.5 958.5 +6.2 2
18 24.03 СЗ 1 10 км {дождь} 10/10 600 м
[Cb calv]
+1.3 +0.4 94 -1 -1 1018.3 960.1
21 24.03 штиль 0 10 км 10/10 600 м
[Cb calv]
+2.0 -0.5 83 +1 +1 1017.9 959.9
00 25.03 З 2 10 км 10/10 600 м
[Cb calv]
+1.9 -1.4 79 -1 -1 1018.4 960.3
03 25.03 З 1 20 км 10/10 600 м
[Cb calv]
+2.1 -1.0 80 +1 +1 1020.3 962.1 +1.2 0.0
06 25.03 ЮЗ 1 20 км 10/10 600 м
[Sc]
+4.7 -1.9 62 +4 +4 1020.1 962.4
09 25.03 СВ 2 20 км 10/10 600 м
[Sc]
+4.4 -0.6 70 +2 +2 1019.2 961.5
12 25.03 В 1 20 км 10/10 600 м
[Sc]
+3.4 -2.1 67 +2 +2 1019.1 961.2
15 25.03 В 1 20 км 10/10 600 м
[Sc]
+2.8 -2.1 70 +2 +2 1020.0 962.0 +7.0
18 25.03 СВ 1 10 км 10/10 600 м
[Cb calv]
+2.2 -0.9 80 +1 +1 1020.5 962.3
21 25.03 штиль 0 10 км 10/10 600 м
[Cb calv]
+2.1 -1.5 77 +1 +1 1020.2 962.0
00 26.03 штиль 0 10 км 10/10 600 м
[Cb calv]
+2.3 -0.2 84 +1 +1 1019.8 961.7
03 26.03 штиль 0 50 км ясно +2.2 -0.0 85 +1 +1 1020.8 962.6 +1.9
06 26.03 В 1 50 км ясно +7.1 -1.3 55 +7 +16 опасность
простуды
1019.3 962.2
09 26.03 В 3 20 км 10/10 600 м
[Cb calv]
+7.2 +0.4 62 +5 +5 1017.2 960.2
12 26.03 В 2 20 км 10/10 600 м
[Cb calv]
+6.6 +0.9 67 +5 +5 1016.0 959.0
15 26.03 В 1 20 км 10/10 600 м
[Sc diur, vesp]
+5.1 +1.4 77 +4 +4 1016.5 959.2 +8.7
18 26.03 СВ 1 10 км 10/10 600 м
[Cb calv]
+3.4 +2.1 91 +2 +2 1017.1 959.4

 

Местоположение метеостанции Касумкент (Дагестан, Россия): широта 41.67 долгота 48.15 высота над уровнем моря 477 м.

В архиве по умолчанию представлена погода в Касумкенте за последнюю неделю. Архивные данные за месяц целиком и за предыдущие месяцы, начиная с января 2011 года, Вы можете получить, выбрав интересующий диапазон дат из раскрывающегося списка и нажав кнопку "Ввод!".


*Определитесь, кто Вы:
робот инопланетянин человек

Внимание! Время в таблицах - всемирное. Для получения местного времени необходимо прибавить поправку, которая равна 3 ч.

Смотрите также архив погоды в соседних городах и на ближайших метеорологических станциях:

Погода в Ахты (Дагестан, Россия) (40 км)
Погода в Губе (Азербайджан) (45 км)
Погода в Дербенте (Дагестан, Россия) (46 км)
Погода в Габале (Азербайджан) (80 км)
Погода в Сергокале (Дагестан, Россия) (95 км)
Погода в Шеках (Азербайджан) (96 км)
Погода в Изберге (Дагестан, Россия) (98 км)
Погода в Кумухе (Дагестан, Россия) (99 км)
Погода в Геокчае (Азербайджан) (118 км)
Погода в Куппе (Дагестан, Россия) (121 км)

Пояснения к столбцам:

Ветер - указаны скорость ветра в м/с - средняя за 10 мин, порывы в срок и между сроками (в фигурных скобках) и направление, откуда дует ветер: С - северный, СВ - северо-восточный, В - восточный, ЮВ - юго-восточный, Ю - южный, ЮЗ - юго-западный, З - западный, СЗ - северо-западный.
Видимость - горизонтальная дальность видимости в метрах или километрах. При видимости от 1 до 10 км при отсутствии осадков обычно наблюдается дымка, при ухудшении видимости до 1 км и менее - туман. В сухую погоду видимость может ухудшаться дымом, пылью или мглою.
Явления - указаны атмосферные явления, наблюдавшиеся в срок или в последний час перед сроком; фигурными скобками обозначены явления, наблюдавшиеся между сроками (за 1-3 часа до срока); квадратными скобками обозначены град или гололедные отложения с указанием их диаметра в мм.
Облачность - указаны через наклонную черту общая и нижняя облачность в баллах и высота нижней границы облаков в метрах; квадратными скобками обозначены формы облаков: Ci - перистые, Cs - перисто-слоистые, Cc - перисто-кучевые, Ac - высококучевые, As - высокослоистые, Sc - слоисто-кучевые, Ns - слоисто-дождевые, Cu - кучевые, Cb - кучево-дождевые. Подробнее классификацию облаков см. в Атласе облаков (PDF).
T - Температура воздуха - температура, измеренная на высоте 2 м над землей.
Td - Температура точки росы - температура, при понижении до которой содержащийся в воздухе водяной пар достигнет насыщения.
f - Относительная влажность воздуха - влажноcть воздуха, измеренная на высоте 2 м над землей.
Te - Эффективная температура - температура, которую ощущает одетый по сезону человек в тени. Характеристика душности погоды. При расчете учитывается влияние влажности воздуха и скорости ветра на теплоощущения человека.
Tes - Эффективная температура на солнце - температура, которую ощущает человек, с поправкой на солнечный нагрев. Характеристика знойности погоды. Зависит от высоты солнца над горизонтом, облачности и скорости ветра. Ночью, в пасмурную погоду, а также при ветре 12 м/с и более поправка равна нулю.
P - Атмосферное давление - приведенное к уровню моря атмосферное давление.
Po - Атмосферное давление - измеренное на уровне метеостанции атмосферное давление.
Tmin - Минимальная температура - минимум температуры воздуха на высоте 2 м над землей.
Tmax - Максимальная температура - максимум температуры воздуха на высоте 2 м над землей.
R - Количество осадков - Количество выпавших осадков за период времени, мм. При наведении курсора мыши на число - период времени, за который выпало указанное количество осадков.
R24 - Количество осадков - Количество выпавших осадков за 24 часа, мм.
S - Снежный покров - Высота снежного покрова, см. При наведении курсора мыши на число - состояние снежного покрова и степень покрытия местности в баллах.